GPS BIIR-13

Last updated on Tue Sep 15 2026 00:02:57 GMT+0000 (Coordinated Universal Time)

1 28474U 04045A 26257.61228981 -.00000089 00000+0 00000+0 0 9993 2 28474 55.0776 321.2896 0172136 318.5996 86.7741 2.00559854160221
UTC large
Height (km)
Speed (km/s)
/
Latitude / Longitude
Inclination (degrees)
Orbital Period (minutes)
Azimuth
Elevation
Range (km)
Doppler Factor

Next 0 passes for location: London (51.5072 / 0.1276)

No passes found over London.
GPS BIIR-13